Weather in Nizhnie

Russia / Vologda Oblast     59°17′58″N   36°46′46″E
temp.,
°C
wind,
m/s
gust,
m/s
humid.,
%
clouds,
%
prec.,
mm/h
press.,
hPa
HPBL,
m
6 march, sat
sat600:00−14nnw229289 0.0 101321
03:00−16nw229061 0.0 101520
06:00−17wnw22950 0.0 101420
09:00−14w23967 0.0 101595
12:00−9wsw359072 0.0 1014343
15:00−6wsw468685 0.1 1012809
18:00−8ssw369096 0.1 1009137
21:00−8ssw5128797 0.1 1006463
7 march, sun
sun700:00−7ssw71494100 0.3 999817
03:00−6ssw71494100 1.6 994924
06:00−4ssw61395100 1.4 989754
09:00−3wsw5896100 2.9 987593
12:00−5nw5891100 0.9 987647
15:00−6nw5875100 0.9 989960
18:00−8wnw3587100 0.0 990117
21:00−11nw3490100 0.0 99176
8 march, mon
mon800:00−12wnw3792100 0.0 992160
03:00−9nw4995100 0.7 994422
06:00−9n51094100 0.8 995628
09:00−11n61188100 0.9 998676
12:00−10n6987100 0.1 1001810
15:00−9n6987100 0.1 1004836
18:00−14nnw51091100 0.1 1007506
21:00−17nnw41094100 0.1 1010324
9 march, tue
tue900:00−19nnw3897100 0.0 1013199
03:00−23nnw379881 0.0 1014138
06:00−26nnw349713 0.0 101676
09:00−25nnw35967 0.0 1017209
12:00−20nnw248939 0.0 1018365
15:00−17nnw358656 0.0 1018506
18:00−20n239583 0.0 101926
21:00−24n239845 0.0 102230
10 march, wed
wed1000:00−26nne23980 0.0 102328
03:00−28n23980 0.0 102422
06:00−29nne23980 0.0 102521
09:00−27nne23950 0.0 1026122
12:00−20nne23820 0.0 1026357
15:00−16n22740 0.0 1026502
18:00−19nw128668 0.0 102620
21:00−22wnw118777 0.0 102720